Location: Newark
(47.7625°N, 12.7492°E)
Time: 23:14:51
(UTC+00:00)

Envisat - Visible Passes

Search period start: 18 October 2019 00:00
Search period end: 28 October 2019 00:00
Orbit: 764 x 766 km, 98.1° (Epoch: 18 October)

Date Brightness Start Highest point End Pass type
(mag) Time Alt. Az. Time Alt. Az. Time Alt. Az.
18 Oct 3.0 17:06:04 10° SSE 17:11:09 90° N 17:16:17 10° NNW visible
18 Oct 6.1 18:48:37 10° WSW 18:50:54 13° W 18:53:11 10° WNW visible
19 Oct 5.2 18:09:26 10° SSW 18:13:42 27° W 18:17:59 10° NW visible
20 Oct 6.5 04:37:12 10° ENE 04:38:59 12° E 04:40:46 10° ESE visible
20 Oct 3.8 17:31:44 10° S 17:36:42 55° W 17:41:42 10° NNW visible
21 Oct 3.0 16:54:50 10° SSE 16:59:54 74° ENE 17:04:59 10° N visible
21 Oct 5.9 18:36:22 10° SW 18:39:29 16° W 18:42:37 10° NW visible
22 Oct 6.0 05:01:08 10° NE 05:04:51 20° E 05:08:32 10° SE visible
22 Oct 4.8 17:57:47 10° SSW 18:02:20 33° W 18:06:55 10° NNW visible
23 Oct 3.4 17:20:21 10° S 17:25:24 68° WSW 17:30:30 10° NNW visible
24 Oct 3.0 16:43:40 10° SSE 16:48:39 60° ENE 16:53:40 10° N visible
24 Oct 5.6 18:24:24 10° SW 18:28:05 20° W 18:31:48 10° NW visible
25 Oct 6.1 04:50:19 10° NE 04:53:26 16° E 04:56:33 10° SE visible
25 Oct 4.4 17:46:14 10° SSW 17:51:00 40° W 17:55:48 10° NNW visible
26 Oct 3.1 17:09:02 10° SSE 17:14:07 84° WSW 17:19:15 10° NNW visible
26 Oct 6.2 18:52:08 10° WSW 18:53:56 12° W 18:55:45 10° WNW visible
27 Oct 3.2 16:32:34 10° SE 16:37:26 48° ENE 16:42:19 10° N visible
27 Oct 5.3 18:12:35 10° SSW 18:16:42 25° W 18:20:51 10° NW visible
